This demonstration page uses our WeatherBlox Daily Observations layout. Learn more.

Left ArrowRight Arrow

41.55636, -103.73856

Hourly Observations for April 25, 2020

Temp ( °F °C ) Dew Point ( °F °C ) Humidity (%) Winds ( mph kmh ) Pressure ( in mb ) Visibility ( mi km ) Precip ( " mm )
6:58 pm 18:58 Mostly Clear 49 9.3 37 3 65 65 ENE 14 22 30.09 1019 10 16 0.00 0.00
7:58 pm 19:58 Cloudy with Light Rain 44 6.9 39 3.7 80 80 S 5 7 30.15 1021 10 16 0.00 0.00
8:58 pm 20:58 Partly Cloudy 41 5.2 36 2.4 82 82 ENE 10 17 30.16 1021 10 16 0.00 0.00
9:58 pm 21:58 Mostly Clear 40 4.5 35 1.4 81 81 SW 3 6 30.18 1022 10 16 0.00 0.00
10:58 pm 22:58 Mostly Cloudy 38 3.5 35 1.8 89 89 Calm 30.20 1023 10 16 0.00 0.00
11:58 pm 23:58 Clear 37 2.7 34 1.1 89 89 W 6 9 30.21 1023 10 16 0.00 0.00
12:58 am 00:58 Mostly Cloudy 36 2.4 33 0.8 89 89 WSW 6 9 30.22 1023 10 16 0.00 0.00
1:58 am 01:58 Mostly Cloudy 37 2.7 33 0.8 87 87 WSW 5 7 30.21 1023 10 16 0.00 0.00
2:58 am 02:58 Mostly Cloudy 37 3 33 0.6 84 84 W 6 9 30.20 1023 10 16 0.00 0.00
3:58 am 03:58 Partly Cloudy 36 2 33 0.4 89 89 W 3 6 30.20 1023 10 16 0.00 0.00
4:58 am 04:58 Mostly Cloudy 35 1.6 31 -0.3 87 87 Calm 30.20 1023 10 16 0.00 0.00
5:58 am 05:58 Mostly Cloudy 35 1.6 32 0.1 90 90 WNW 5 7 30.22 1023 10 16 0.00 0.00
6:58 am 06:58 Mostly Sunny 36 2 33 0.5 90 90 Calm 30.25 1024 10 16 0.00 0.00
7:58 am 07:58 Sunny 40 4.4 36 2 85 85 WNW 3 6 30.27 1025 10 16 0.00 0.00
8:58 am 08:58 Mostly Sunny 46 7.8 36 2.3 68 68 W 6 9 30.25 1024 10 16 0.00 0.00
9:58 am 09:58 Sunny 51 10.7 33 0.8 51 51 NW 7 11 30.24 1024 10 16 0.00 0.00
10:58 am 10:58 Mostly Sunny 54 12 28 -2.4 37 37 NNE 12 19 30.23 1024 10 16 0.00 0.00
11:58 am 11:58 Partly Cloudy 54 12.2 28 -2.5 36 36 N 10 17 30.23 1024 10 16 0.00 0.00
12:58 pm 12:58 Partly Cloudy 55 12.6 28 -2.5 35 35 Calm 30.20 1023 10 16 0.00 0.00
1:58 pm 13:58 Mostly Cloudy 57 14 26 -3.1 31 31 NNE 5 7 30.18 1022 10 16 0.00 0.00
2:58 pm 14:58 Mostly Sunny 57 13.9 27 -3 31 31 WNW 7 11 30.15 1021 10 16 0.00 0.00
3:58 pm 15:58 Sunny 59 14.9 26 -3.4 28 28 NW 12 19 30.13 1020 10 16 0.00 0.00
4:58 pm 16:58 Mostly Sunny 59 14.8 27 -2.9 30 30 N 5 7 30.14 1021 10 16 0.00 0.00
5:58 pm 17:58 Mostly Sunny 58 14.7 27 -2.8 30 30 WSW 3 6 30.12 1020 10 16 0.00 0.00

Powered by AerisWeather